This demonstration page uses our WeatherBlox Daily Observations layout. Learn more.

Left ArrowRight Arrow

Hourly Observations for September 27, 2022

Temp ( °F °C ) Dew Point ( °F °C ) Humidity (%) Winds ( mph kmh ) Pressure ( in mb ) Visibility ( mi km ) Precip ( " mm )
12:15 am 00:15 Clear 59 15 48 9 67 67 WNW 8 13 29.88 1012 10 16 0.00 0.00
12:35 am 00:35 Clear 61 16 46 8 59 59 WNW 10 17 29.89 1012 10 16 0.00 0.00
12:55 am 00:55 Clear 61 16 46 8 59 59 WNW 10 17 29.89 1012 10 16 0.00 0.00
1:15 am 01:15 Clear 63 17 45 7 52 52 WNW 12 19 29.89 1012 10 16 0.00 0.00
1:35 am 01:35 Clear 61 16 45 7 55 55 WNW 13 20 29.89 1012 10 16 0.00 0.00
1:55 am 01:55 Clear 61 16 45 7 55 55 WNW 12 19 29.89 1012 10 16 0.00 0.00
2:15 am 02:15 Clear 61 16 46 8 59 59 WNW 14 22 29.89 1012 10 16 0.00 0.00
2:35 am 02:35 Clear 61 16 46 8 59 59 WNW 14 22 29.89 1012 10 16 0.00 0.00
2:55 am 02:55 Clear 61 16 46 8 59 59 WNW 14 22 29.88 1012 10 16 0.00 0.00
3:15 am 03:15 Clear 61 16 46 8 59 59 WNW 9 15 29.88 1012 10 16 0.00 0.00
3:35 am 03:35 Clear 59 15 45 7 59 59 WNW 12 19 29.88 1012 10 16 0.00 0.00
3:55 am 03:55 Clear 59 15 45 7 59 59 WNW 13 20 29.87 1011 10 16 0.00 0.00
4:15 am 04:15 Clear 59 15 45 7 59 59 WNW 9 15 29.87 1011 10 16 0.00 0.00
4:35 am 04:35 Clear 59 15 45 7 59 59 WNW 8 13 29.88 1012 10 16 0.00 0.00
4:55 am 04:55 Clear 59 15 46 8 63 63 W 7 11 29.88 1012 10 16 0.00 0.00
5:15 am 05:15 Clear 55 13 46 8 72 72 W 7 11 29.88 1012 10 16 0.00 0.00
5:35 am 05:35 Clear 57 14 46 8 67 67 W 6 9 29.88 1012 10 16 0.00 0.00
5:55 am 05:55 Clear 55 13 46 8 72 72 W 6 9 29.89 1012 10 16 0.00 0.00
6:15 am 06:15 Clear 55 13 46 8 72 72 WNW 7 11 29.89 1012 10 16 0.00 0.00
6:35 am 06:35 Clear 55 13 46 8 72 72 WNW 7 11 29.90 1013 10 16 0.00 0.00
6:55 am 06:55 Clear 55 13 46 8 72 72 WNW 9 15 29.90 1013 10 16 0.00 0.00
7:15 am 07:15 Sunny 55 13 46 8 72 72 W 6 9 29.91 1013 10 16 0.00 0.00
7:35 am 07:35 Sunny 54 12 46 8 76 76 W 7 11 29.92 1013 10 16 0.00 0.00
7:55 am 07:55 Sunny 55 13 48 9 77 77 W 7 11 29.92 1013 10 16 0.00 0.00
8:15 am 08:15 Sunny 55 13 48 9 77 77 WNW 7 11 29.92 1013 10 16 0.00 0.00
8:35 am 08:35 Sunny 57 14 48 9 72 72 W 7 11 29.92 1013 10 16 0.00 0.00
8:55 am 08:55 Sunny 57 14 48 9 72 72 W 6 9 29.93 1014 10 16 0.00 0.00
9:15 am 09:15 Sunny 59 15 50 10 72 72 WNW 6 9 29.93 1013 10 16 0.00 0.00
9:35 am 09:35 Sunny 61 16 48 9 63 63 WSW 5 7 29.94 1014 10 16 0.00 0.00
9:55 am 09:55 Sunny 63 17 50 10 63 63 W 8 13 29.94 1014 10 16 0.00 0.00
10:15 am 10:15 Sunny 64 18 50 10 59 59 W 6 9 29.94 1014 10 16 0.00 0.00
10:35 am 10:35 Partly Cloudy 66 19 50 10 56 56 WNW 9 15 29.94 1014 10 16 0.00 0.00
10:55 am 10:55 Partly Cloudy 64 18 46 8 52 52 W 13 20 29.94 1014 10 16 0.00 0.00
11:15 am 11:15 Partly Cloudy 68 20 46 8 46 46 WNW 14 22 29.94 1014 10 16 0.00 0.00
11:35 am 11:35 Partly Cloudy 66 19 46 8 49 49 W 13 20 29.94 1014 10 16 0.00 0.00
11:55 am 11:55 Mostly Cloudy 66 19 46 8 49 49 WNW 12 19 29.94 1014 10 16 0.00 0.00
12:15 pm 12:15 Mostly Cloudy 68 20 46 8 46 46 W 14 22 29.94 1014 10 16 0.00 0.00
12:35 pm 12:35 Mostly Cloudy 66 19 45 7 46 46 W 10 17 29.95 1014 10 16 0.00 0.00
12:55 pm 12:55 Cloudy 68 20 45 7 43 43 WNW 14 22 29.95 1014 10 16 0.00 0.00
1:15 pm 13:15 Cloudy 66 19 46 8 49 49 W 8 13 29.95 1014 10 16 0.00 0.00
1:35 pm 13:35 Mostly Cloudy 70 21 46 8 43 43 WSW 13 20 29.94 1014 10 16 0.00 0.00
1:55 pm 13:55 Cloudy 68 20 45 7 43 43 WNW 9 15 29.94 1014 10 16 0.00 0.00
2:15 pm 14:15 Cloudy 68 20 46 8 46 46 WNW 13 20 29.94 1014 10 16 0.00 0.00
2:35 pm 14:35 Partly Cloudy 70 21 46 8 43 43 WNW 15 24 29.93 1014 10 16 0.00 0.00
2:55 pm 14:55 Partly Cloudy 70 21 45 7 40 40 WNW 15 24 29.92 1013 10 16 0.00 0.00
3:15 pm 15:15 Mostly Cloudy 68 20 45 7 43 43 WNW 14 22 29.93 1014 10 16 0.00 0.00
3:35 pm 15:35 Mostly Cloudy 70 21 45 7 40 40 WNW 12 19 29.93 1014 10 16 0.00 0.00
3:55 pm 15:55 Partly Cloudy 70 21 43 6 38 38 WNW 16 26 29.94 1014 10 16 0.00 0.00
4:15 pm 16:15 Sunny 70 21 45 7 40 40 WNW 12 19 29.94 1014 10 16 0.00 0.00
4:35 pm 16:35 Partly Cloudy 68 20 43 6 40 40 WNW 10 17 29.94 1014 10 16 0.00 0.00
4:55 pm 16:55 Mostly Cloudy 66 19 45 7 46 46 NW 10 17 29.95 1014 10 16 0.00 0.00
5:15 pm 17:15 Partly Cloudy 68 20 43 6 40 40 W 12 19 29.96 1015 10 16 0.00 0.00
5:35 pm 17:35 Sunny 64 18 45 7 49 49 WNW 8 13 29.96 1015 10 16 0.00 0.00
5:55 pm 17:55 Mostly Cloudy 63 17 45 7 52 52 NW 14 22 29.98 1015 10 16 0.00 0.00
6:15 pm 18:15 Cloudy 63 17 43 6 48 48 WNW 13 20 29.98 1015 10 16 0.00 0.00
6:35 pm 18:35 Cloudy 63 17 45 7 52 52 W 9 15 30.00 1016 10 16 0.00 0.00
6:55 pm 18:55 Cloudy 61 16 45 7 55 55 W 6 9 30.00 1016 10 16 0.00 0.00
7:15 pm 19:15 Cloudy 61 16 45 7 55 55 W 14 22 30.01 1016 10 16 0.00 0.00
7:35 pm 19:35 Cloudy 61 16 45 7 55 55 NW 15 24 30.02 1017 10 16 0.00 0.00
7:55 pm 19:55 Mostly Cloudy 59 15 45 7 59 59 NW 15 24 30.03 1017 10 16 0.00 0.00
8:15 pm 20:15 Mostly Cloudy 59 15 45 7 59 59 WNW 14 22 30.04 1017 10 16 0.00 0.00
8:35 pm 20:35 Partly Cloudy 59 15 45 7 59 59 WNW 13 20 30.05 1018 10 16 0.00 0.00
8:55 pm 20:55 Clear 57 14 45 7 63 63 WNW 5 7 30.07 1018 10 16 0.00 0.00
9:15 pm 21:15 Clear 55 13 45 7 67 67 WNW 6 9 30.08 1019 10 16 0.00 0.00
9:35 pm 21:35 Partly Cloudy 55 13 45 7 67 67 WNW 10 17 30.08 1019 10 16 0.00 0.00
9:55 pm 21:55 Partly Cloudy 55 13 45 7 67 67 NW 16 26 30.07 1018 10 16 0.00 0.00
10:15 pm 22:15 Clear 55 13 45 7 67 67 NW 14 22 30.08 1019 10 16 0.00 0.00
10:35 pm 22:35 Clear 55 13 45 7 67 67 SSW 3 6 30.09 1019 10 16 0.00 0.00
10:55 pm 22:55 Clear 55 13 45 7 67 67 Calm 30.10 1019 10 16 0.00 0.00
11:15 pm 23:15 Clear 54 12 45 7 71 71 WNW 5 7 30.10 1019 10 16 0.00 0.00
11:35 pm 23:35 Clear 52 11 45 7 76 76 WNW 5 7 30.11 1019 10 16 0.00 0.00
11:55 pm 23:55 Clear 52 11 45 7 76 76 W 5 7 30.11 1020 10 16 0.00 0.00

Powered by AerisWeather